Location: Oshawa
(43.9000°N, 78.8670°W)
Time: 21:53:12
(UTC-05:00)

Iridium 98 - Visible Passes

Search period start: 20 February 2017 00:00
Search period end: 02 March 2017 00:00
Orbit: 776 x 779 km, 86.4° (Epoch: 20 February)

Date Brightness Start Highest point End Pass type
(mag) Time Alt. Az. Time Alt. Az. Time Alt. Az.
20 Feb 8.4 05:19:06 10° NNE 05:22:35 18° ENE 05:26:03 10° ESE visible
20 Feb 6.1 18:16:44 10° SSE 18:21:22 34° E 18:26:02 10° NNE visible
20 Feb 7.5 19:57:33 10° SW 20:02:05 30° WNW 20:06:39 10° NNW visible
21 Feb 5.8 06:25:00 10° N 06:30:15 78° E 06:35:27 10° S visible
21 Feb 6.4 19:23:19 10° SSW 19:28:23 52° W 19:33:30 10° N visible
22 Feb 6.9 05:51:39 10° N 05:56:38 43° E 06:01:34 10° SSE visible
22 Feb 5.5 18:49:36 10° S 18:54:49 87° E 19:00:04 10° N visible
22 Feb 8.7 20:34:19 10° W 20:36:17 12° WNW 20:38:16 10° NW visible
23 Feb 7.9 05:18:37 10° NNE 05:22:54 25° ENE 05:27:07 10° SE visible
23 Feb 8.1 19:58:26 10° SW 20:02:21 21° WNW 20:06:19 10° NNW visible
24 Feb 8.6 04:46:16 10° NE 04:49:00 14° ENE 04:51:44 10° ESE visible
24 Feb 5.5 06:25:07 10° N 06:30:21 75° W 06:35:32 10° S visible
24 Feb 7.1 19:23:47 10° SSW 19:28:35 37° W 19:33:25 10° NNW visible
25 Feb 6.1 05:51:37 10° N 05:56:48 62° E 06:01:57 10° SSE visible
25 Feb 6.0 18:49:46 10° SSW 18:54:56 67° W 19:00:09 10° N visible
26 Feb 7.3 05:18:23 10° NNE 05:23:09 34° E 05:27:52 10° SE visible
26 Feb 8.6 19:59:42 10° WSW 20:02:42 15° WNW 20:05:42 10° NW visible
27 Feb 8.2 04:45:33 10° NNE 04:49:21 20° ENE 04:53:07 10° ESE visible
27 Feb 5.7 06:25:20 10° NNW 06:30:24 52° W 06:35:26 10° SSW visible
27 Feb 7.8 19:24:29 10° SW 19:28:50 26° WNW 19:33:13 10° NNW visible
28 Feb 8.8 04:13:56 10° NE 04:15:24 11° ENE 04:16:52 10° E visible
28 Feb 5.6 05:51:41 10° N 05:56:56 87° E 06:02:09 10° S visible
28 Feb 6.8 18:50:06 10° SSW 18:55:06 46° W 19:00:08 10° N visible
01 Mar 6.6 05:18:17 10° N 05:23:21 49° E 05:28:23 10° SSE visible
01 Mar 9.0 20:02:07 10° W 20:03:05 10° WNW 20:04:03 10° WNW visible
